Showing default

CALSPHERE 4(A), 1520

Orbit data source: Space-Track

CALSPHERE 4(A), 1520 is a payload satellite owned by NRL (US) in LEO that was launched on Fri, 13 Aug 1965 UTC via a THOR ABLESTAR launch vehicle from the Air Force Western Test Range (AFWTR). Payload-class satellites include a variety of spacecraft equipped with specific instruments for various scientific and technological missions. These include communications satellites like Starlink; space stations such as the ISS; scientific satellites like the Hubble; Earth observation satellites from companies like Planet Labs, Umbra, and HawkEye 360; GPS; miniature CubeSats for education and research; and military/defense satellites.

Loading next visibility...
Identifier
1520, 1965-065H
Orbit
LEO
Country
Flag of USUS
Related business
Manufacturer
NRL
Mission
Operational spacecraft
Bus & Motor
NRL 14", Unknown motor
Mass
4 kg wet, 4 kg dry
Launch date (UTC)
1965-08-13 (60 years ago)
Launch vehicle
THOR ABLESTAR
Launch site
Air Force Western Test Range (AFWTR)
Object type
Payload
Rocket body
Debris
Shape & HBR
Unknown
Radar Cross Section
Small (<0.1 m²)

Expand to show TLE details & history
Last TLE update: 20 hours ago

TLE from 20 hours ago
0 CALSPHERE 4(A)
1 01520U 65065H   25348.42323071  .00000153  00000-0  27782-3 0  9992
2 01520  89.9098 124.2260 0068246 264.7195 164.5298 13.36240173938038
Epoch: 2025-12-14T10:09Z
TLE epoch observation values (Epoch: 2025-12-14T10:09:27.133Z)
Latitude
69.52623°
Longitude
-111.23305°
Altitude
1,184.804 km
Speed
7.243 km/s
True Right ascension
08h 17m 51s
True Declination
69° 25' 11"
Sunlit
Object was in full shadow at epoch
Visualization orbit readout
Latitude
Unknown
Longitude
Unknown
Altitude
Unknown
Speed
Unknown
Apparent Right ascension
Unknown
Apparent Declination
Unknown
Sunlit
N/A
Visualization observer readout
Local Sidereal Time
04:35:43
Azimuth
Unknown
Elevation
Unknown
Doppler factor
Unknown
Orbital elements
Apogee altitude
1,171.562 km
Perigee altitude
1,069.213 km
Semi-major axis
7,498.524 km
Eccentricity
0.00682
Inclination
89.9098°
RAAN
124.226°
Arg. of periapsis
264.7195°
True anomaly
164.7367°
Mean anomaly
164.5298°
Eccentric anomaly
164.63342°
Mean motion
3.34256 °/min
Orbital period
107.7 mins
BSTAR
0.00027782
Loading maneuver chart data...
Computing Atmospheric mass density...
Loading historical data...
Loading historical data...
Loading historical data...
Loading historical data...
Loading historical data...
Loading historical data...
Loading historical data...

Documentation

Showing up to 5 results
|